Total_Precipitation_Accumulation
1.55 1.78 1.95 2.17 2.38 2.56 2.70 2.90 3.14 3.43 3.64 3.97 4.29 4.47 4.59 4.74 4.79 4.78 4.82 4.84 4.86 4.97 4.99 4.80 4.77 4.65 4.53 4.33 4.24 4.08 3.87 3.62 3.58 3.45 3.01 2.45 2.11 2.07 1.99 2.04 2.23 2.25 2.14
1.53 1.89 2.20 2.63 2.84 2.94 2.98 3.18 3.50 3.78 3.93 4.32 4.81 5.20 5.34 5.40 5.42 5.41 5.55 5.65 5.68 5.81 5.83 5.78 5.56 5.38 5.11 4.64 4.27 4.11 3.88 3.54 3.63 3.62 3.53 2.85 2.38 1.96 1.62 1.72 1.79 1.87 2.03
1.77 2.02 2.38 2.65 2.79 2.88 3.00 3.16 3.59 4.03 4.46 4.95 5.49 5.91 6.12 6.17 6.05 5.77 5.84 5.97 5.89 5.95 6.08 6.03 5.81 5.48 4.93 4.40 4.23 4.16 4.01 3.79 3.71 3.59 3.73 3.22 2.70 2.29 1.82 1.59 1.50 1.60 1.70
1.74 2.02 2.25 2.52 2.65 2.76 2.99 3.19 3.56 4.19 4.68 5.05 5.70 6.31 6.57 6.78 6.88 6.65 6.33 6.10 5.85 5.73 5.62 5.45 5.06 4.67 4.31 4.01 3.88 3.91 3.77 3.75 3.60 3.52 3.26 3.03 2.75 2.49 2.09 1.69 1.49 1.51 1.54
1.55 1.87 2.00 2.24 2.54 2.64 2.76 3.00 3.51 4.08 4.74 5.36 5.91 6.45 6.89 7.12 7.08 6.66 6.23 5.72 5.35 4.93 4.54 4.19 3.97 3.89 3.69 3.46 3.33 3.31 3.22 3.08 3.00 3.01 2.99 2.95 2.71 2.39 2.15 1.87 1.66 1.63 1.51
1.39 1.53 1.67 1.87 2.17 2.26 2.49 2.82 3.24 3.92 4.60 5.18 5.78 6.24 6.62 6.68 6.36 5.84 5.33 4.99 4.63 4.17 3.68 3.41 3.18 3.06 2.88 2.67 2.53 2.51 2.53 2.62 2.67 2.73 2.73 2.70 2.67 2.51 2.43 2.22 1.96 1.84 1.75
1.26 1.44 1.51 1.66 1.84 1.96 2.22 2.59 3.13 3.74 4.17 4.67 5.17 5.49 5.69 5.75 5.68 5.34 4.92 4.60 4.18 3.76 3.29 2.85 2.62 2.39 2.19 2.08 2.04 2.01 2.00 2.11 2.24 2.35 2.41 2.40 2.35 2.33 2.39 2.45 2.21 1.97 1.84
1.36 1.56 1.67 1.77 1.88 1.98 2.11 2.45 2.89 3.33 3.58 3.83 4.22 4.51 4.62 4.65 4.53 4.30 3.97 3.68 3.39 3.13 2.82 2.37 2.00 1.78 1.67 1.58 1.64 1.67 1.69 1.74 1.82 1.91 2.08 2.09 2.04 2.14 2.24 2.34 2.41 2.29 2.00
1.36 1.54 1.69 1.79 1.88 1.91 2.04 2.18 2.43 2.66 2.89 3.08 3.26 3.40 3.44 3.36 3.24 3.05 2.81 2.61 2.44 2.20 2.05 1.85 1.63 1.49 1.45 1.45 1.48 1.47 1.45 1.53 1.61 1.67 1.77 1.88 1.89 1.95 2.04 2.18 2.29 2.35 2.20
1.37 1.51 1.56 1.63 1.68 1.62 1.71 1.79 2.00 2.13 2.27 2.39 2.44 2.36 2.37 2.32 2.19 2.03 1.93 1.79 1.61 1.49 1.46 1.42 1.42 1.36 1.28 1.31 1.37 1.33 1.31 1.40 1.42 1.41 1.49 1.59 1.67 1.77 1.87 1.99 2.09 2.15 2.12
1.28 1.31 1.35 1.38 1.40 1.33 1.34 1.43 1.58 1.78 1.87 1.86 1.90 1.86 1.79 1.64 1.55 1.45 1.40 1.32 1.23 1.21 1.20 1.21 1.23 1.22 1.21 1.20 1.20 1.16 1.16 1.21 1.33 1.41 1.45 1.50 1.56 1.64 1.67 1.69 1.75 1.88 2.00
1.27 1.20 1.18 1.16 1.17 1.13 1.12 1.19 1.25 1.34 1.38 1.42 1.43 1.42 1.36 1.27 1.23 1.17 1.13 1.15 1.12 1.09 1.12 1.12 1.12 1.16 1.22 1.24 1.17 1.08 1.06 1.12 1.22 1.29 1.35 1.35 1.34 1.40 1.51 1.58 1.57 1.62 1.73
1.32 1.27 1.20 1.13 1.16 1.24 1.23 1.09 1.09 1.13 1.15 1.18 1.19 1.17 1.21 1.18 1.15 1.17 1.17 1.15 1.11 1.09 1.05 1.01 1.04 1.12 1.16 1.16 1.11 1.05 1.02 1.03 1.09 1.13 1.14 1.15 1.17 1.17 1.22 1.29 1.36 1.37 1.39
1.29 1.32 1.34 1.31 1.23 1.25 1.36 1.22 1.08 1.07 1.14 1.12 1.10 1.02 0.99 1.03 1.06 1.08 1.10 1.06 1.02 1.03 1.05 1.04 0.99 0.99 0.95 0.89 0.84 0.84 0.88 0.87 0.87 0.89 0.89 0.95 1.04 1.06 1.08 1.07 1.11 1.14 1.25
1.44 1.41 1.35 1.34 1.27 1.22 1.26 1.23 1.17 1.10 1.27 1.24 1.20 1.11 1.01 1.01 1.04 1.04 1.01 0.96 0.92 0.87 0.87 0.89 0.84 0.77 0.67 0.59 0.58 0.62 0.65 0.69 0.69 0.72 0.70 0.71 0.83 0.91 0.88 0.81 0.91 1.03 1.16
1.63 1.60 1.51 1.49 1.47 1.39 1.35 1.28 1.25 1.22 1.30 1.36 1.42 1.44 1.33 1.27 1.24 1.14 1.01 0.99 0.98 0.91 0.81 0.76 0.74 0.67 0.53 0.52 0.48 0.54 0.63 0.70 0.69 0.71 0.72 0.66 0.69 0.71 0.67 0.66 0.78 0.95 0.99
1.87 1.85 1.79 1.72 1.71 1.66 1.57 1.48 1.38 1.35 1.35 1.42 1.46 1.44 1.42 1.40 1.36 1.19 1.06 1.04 1.01 0.99 0.96 0.85 0.77 0.74 0.66 0.53 0.45 0.49 0.61 0.70 0.71 0.70 0.69 0.60 0.56 0.62 0.63 0.64 0.68 0.75 0.76
1.80 1.81 1.84 1.82 1.81 1.70 1.60 1.52 1.44 1.42 1.43 1.44 1.45 1.41 1.31 1.31 1.24 1.14 1.11 1.05 0.98 0.96 0.94 0.87 0.79 0.70 0.54 0.40 0.35 0.36 0.50 0.65 0.69 0.68 0.67 0.68 0.65 0.60 0.61 0.60 0.64 0.73 0.79
1.91 1.86 1.82 1.72 1.69 1.65 1.58 1.51 1.49 1.47 1.47 1.44 1.36 1.28 1.20 1.18 1.11 1.07 1.01 0.93 0.86 0.84 0.80 0.73 0.68 0.67 0.53 0.33 0.28 0.31 0.49 0.66 0.65 0.61 0.55 0.57 0.61 0.61 0.59 0.63 0.76 0.82 0.87
1.75 1.65 1.50 1.41 1.44 1.48 1.46 1.45 1.43 1.42 1.39 1.20 1.02 0.96 0.99 0.99 0.95 0.89 0.83 0.79 0.77 0.76 0.67 0.60 0.63 0.63 0.59 0.43 0.36 0.38 0.49 0.61 0.59 0.60 0.57 0.52 0.52 0.53 0.55 0.64 0.78 0.85 0.85
1.30 1.22 1.16 1.21 1.29 1.30 1.25 1.25 1.20 1.20 1.15 1.03 0.89 0.85 0.85 0.81 0.78 0.77 0.77 0.73 0.68 0.70 0.68 0.67 0.63 0.57 0.49 0.38 0.33 0.34 0.39 0.51 0.56 0.57 0.61 0.55 0.45 0.42 0.46 0.58 0.66 0.71 0.69
0.96 0.92 0.94 1.01 1.05 1.01 1.02 1.09 1.10 1.02 0.95 0.97 0.90 0.85 0.76 0.66 0.66 0.78 0.77 0.73 0.73 0.75 0.73 0.70 0.63 0.50 0.41 0.32 0.26 0.26 0.31 0.38 0.52 0.61 0.62 0.55 0.46 0.42 0.44 0.52 0.58 0.59 0.69
0.72 0.75 0.77 0.82 0.91 0.93 0.95 1.00 1.00 0.90 0.89 0.95 0.93 0.81 0.69 0.71 0.70 0.76 0.75 0.69 0.67 0.62 0.57 0.55 0.55 0.48 0.40 0.33 0.27 0.29 0.33 0.39 0.46 0.53 0.49 0.45 0.45 0.46 0.56 0.58 0.59 0.69 0.90
0.56 0.64 0.68 0.68 0.77 0.80 0.83 0.89 0.82 0.80 0.94 1.04 0.98 0.84 0.73 0.67 0.63 0.62 0.57 0.54 0.54 0.52 0.50 0.47 0.44 0.42 0.41 0.38 0.36 0.37 0.37 0.39 0.44 0.48 0.50 0.54 0.57 0.60 0.69 0.78 0.87 0.91 0.97
0.57 0.60 0.65 0.64 0.61 0.63 0.69 0.67 0.67 0.79 1.03 1.01 0.90 0.78 0.65 0.57 0.53 0.44 0.38 0.35 0.34 0.33 0.36 0.35 0.32 0.36 0.37 0.33 0.33 0.33 0.33 0.35 0.35 0.38 0.56 0.77 0.81 0.87 0.94 0.97 1.02 1.08 1.01
0.51 0.58 0.59 0.54 0.55 0.60 0.62 0.59 0.60 0.69 0.90 0.92 0.74 0.61 0.53 0.46 0.39 0.35 0.34 0.27 0.21 0.19 0.18 0.18 0.19 0.20 0.22 0.20 0.22 0.25 0.27 0.30 0.33 0.39 0.65 0.77 0.82 0.89 0.91 0.92 0.96 1.02 1.06